Starlink 35035

operational
NORAD ID: 65407 Int'l Des: 2025-192 Owner: SPXS Country: US Constellation: starlink
LEOCIRCULAR

Über Starlink 35035

Beschreibung wird geladen...

Live-Position

3D-Globus wird geladen...

Nächste Überflüge

Höhenverlauf

Altitude vs Time

uPlot chart will show altitude changes over time

Zweizeiliger Elementsatz

1 65407U 25192D 25340.64537294 .00071133 00000-0 17680-2 0 9994
2 65407 53.1621 310.5825 0000813 273.7493 86.3419 15.39684916 15057
Epoch: 6. Dez. 2025 • Age: 30 hours

Aktueller Status

Höhe 451.2 km
Geschwindigkeit 7.65 km/s
Subsatellitenpunkt 42.58°N, 40.3°E
Startdatum 31. Aug. 2025
Alter 0.2 years
Typ internet

Technische Details

Klassifizierung Payload
Masse 575.00 kg
Trockenmasse 530.00 kg
Gesamtmasse 575.00 kg
Länge 0.30 m
Durchmesser 4.10 m
Spannweite 29.00 m
Form Box + pan
Hersteller SPXS
Bus-Typ Starlink V2MO
Phasenstatus In Orbit
Besitzer/Staat SPXS/US

Große Konstellationen

Loading constellations...